FLOCK 4Y 29

导读

FLOCK 4Y 29是美国于2023年1月3日发射的SuperDove商业遥感卫星,属于Planet公司FLOCK-4y批次36颗卫星之一,归入Planet的Dove卫星星座。 它配备8个光谱波段,可提升星座在轨容量,能快速为用户提供高质量对地观测影像,广泛服务于农业估产、林业监测、城市规划、灾害评估等多个领域,为行业应用与科学决策提供持续的遥感数据支撑。

基本信息
目录编号:
55030
目录名称:
FLOCK 4Y 29
国际标识:
2023-001X
轨道中心:
EARTH
卫星名称:
FLOCK 4Y 29
卫星全名:
--
卫星状态:
已陨落 最后检测时间 2025-05-13
发射日期:
2023-01-03 UTC
国别 :
美国 (US)
星等 :
--
轨道信息
数据来源 国际轨道数据
星历时间: 2025-05-11T02:10:55+0800
轨道信息已过期443天
半长轴: 6547.999km
偏心率: 0.0014439
轨道倾角: 97.340°
近地点辐角 268.395°
升交点赤经 206.669°
平近点角 91.569°
近地点: 160.409km
远地点: 179.319km
周期: 87.887分钟
每日圈数: 16.384755
详细信息
使用方式:
暂无